When you browse on this site, cookies collect data to enhance your experience and personalize the content and advertising you see.
Visit our Privacy Policy to learn more. By continuing to use the site, you agree to this use of cookies and data.
  • In Sweden
  • List of Countries
  • For 7 days
  • Water Temperature
  • Weather Map
  • Weather Widgets
  • user-avatar
    Login

    Hourly Weather Sárkeresztes

    Today, 25 February, Tuesday

    Time Temperature Precipitation Wind Pressure Humidity
    00:00 +5°C° 0 mm 4 mps 751 mmHg 63%
    01:00 +5°C° 0 mm 4 mps 750 mmHg 60%
    02:00 +5°C° 0 mm 4 mps 749 mmHg 61%
    03:00 +4°C° 0 mm 4 mps 749 mmHg 63%
    04:00 +4°C° 0 mm 4 mps 748 mmHg 64%
    05:00 +4°C° 0 mm 4 mps 748 mmHg 67%
    06:00 +4°C° 0 mm 4 mps 747 mmHg 70%
    07:00 +3°C° 0 mm 3 mps 747 mmHg 70%
    08:00 +5°C° 0 mm 4 mps 747 mmHg 67%
    09:00 +7°C° 0 mm 4 mps 746 mmHg 65%
    10:00 +10°C° 0 mm 4 mps 746 mmHg 63%
    11:00 +10°C° 0 mm 5 mps 745 mmHg 61%
    12:00 +11°C° 0 mm 6 mps 745 mmHg 60%
    13:00 +14°C° 0 mm 7 mps 744 mmHg 58%
    14:00 +13°C° 0 mm 6 mps 743 mmHg 61%
    15:00 +13°C° 0 mm 5 mps 743 mmHg 64%
    16:00 +13°C° 0 mm 4 mps 742 mmHg 66%
    17:00 +12°C° 0 mm 4 mps 742 mmHg 70%
    18:00 +11°C° 0 mm 4 mps 742 mmHg 74%
    19:00 +10°C° 0 mm 4 mps 742 mmHg 77%
    20:00 +10°C° 0 mm 4 mps 741 mmHg 79%
    21:00 +9°C° 0 mm 3 mps 741 mmHg 81%
    22:00 +9°C° 0 mm 3 mps 741 mmHg 84%
    23:00 +9°C° 0.1 mm 3 mps 740 mmHg 85%

    Tomorrow, 26 February, Wednesday

    Time Temperature Precipitation Wind Pressure Humidity
    00:00 +9°C° 0.1 mm 3 mps 740 mmHg 86%
    01:00 +9°C° 0.1 mm 2 mps 740 mmHg 87%
    02:00 +8°C° 2.2 mm 3 mps 739 mmHg 89%
    03:00 +8°C° 2.2 mm 3 mps 738 mmHg 91%
    04:00 +8°C° 2.2 mm 3 mps 738 mmHg 93%
    05:00 +8°C° 3.9 mm 3 mps 737 mmHg 93%
    06:00 +7°C° 3.9 mm 3 mps 737 mmHg 92%
    07:00 +5°C° 3.9 mm 3 mps 737 mmHg 92%
    08:00 +7°C° 1.1 mm 3 mps 736 mmHg 87%
    09:00 +7°C° 1.1 mm 3 mps 736 mmHg 82%
    10:00 +8°C° 1.1 mm 3 mps 736 mmHg 77%
    11:00 +7°C° 0.3 mm 4 mps 736 mmHg 76%
    12:00 +7°C° 0.3 mm 6 mps 736 mmHg 76%
    13:00 +6°C° 0.3 mm 7 mps 736 mmHg 75%
    14:00 +5°C° 0.3 mm 7 mps 736 mmHg 74%
    15:00 +5°C° 0.3 mm 7 mps 736 mmHg 72%
    16:00 +4°C° 0.3 mm 8 mps 736 mmHg 70%
    17:00 +4°C° 0 mm 6 mps 736 mmHg 68%
    18:00 +5°C° 0 mm 5 mps 737 mmHg 67%
    19:00 +4°C° 0 mm 3 mps 737 mmHg 65%
    20:00 +4°C° 0 mm 4 mps 738 mmHg 66%
    21:00 +3°C° 0 mm 4 mps 738 mmHg 67%
    22:00 +3°C° 0 mm 4 mps 739 mmHg 68%
    23:00 +2°C° 0 mm 5 mps 739 mmHg 69%

    Day after tomorrow, 27 February, Thursday

    Time Temperature Precipitation Wind Pressure Humidity
    00:00 +1°C° 0 mm 5 mps 740 mmHg 71%
    01:00 +1°C° 0 mm 6 mps 740 mmHg 73%
    02:00 0°C° 0 mm 7 mps 741 mmHg 73%
    03:00 0°C° 0 mm 8 mps 741 mmHg 73%
    04:00 0°C° 0 mm 8 mps 741 mmHg 73%
    05:00 0°C° 0 mm 8 mps 742 mmHg 74%
    06:00 0°C° 0 mm 7 mps 743 mmHg 74%
    07:00 -1°C° 0 mm 6 mps 743 mmHg 75%
    08:00 0°C° 0 mm 7 mps 744 mmHg 72%
    09:00 +1°C° 0 mm 8 mps 744 mmHg 69%
    10:00 +2°C° 0 mm 9 mps 745 mmHg 67%
    11:00 +4°C° 0 mm 8 mps 745 mmHg 63%
    12:00 +4°C° 0 mm 8 mps 745 mmHg 59%
    13:00 +5°C° 0 mm 7 mps 745 mmHg 54%
    14:00 +5°C° 0 mm 6 mps 745 mmHg 53%
    15:00 +6°C° 0 mm 5 mps 744 mmHg 51%
    16:00 +6°C° 0 mm 4 mps 744 mmHg 50%
    17:00 +5°C° 0 mm 4 mps 743 mmHg 55%
    18:00 +4°C° 0 mm 4 mps 743 mmHg 59%
    19:00 +3°C° 0 mm 4 mps 742 mmHg 64%
    20:00 +3°C° 0 mm 6 mps 741 mmHg 62%
    21:00 +3°C° 0 mm 7 mps 740 mmHg 60%
    22:00 +2°C° 0 mm 8 mps 739 mmHg 58%
    23:00 +2°C° 0.1 mm 9 mps 739 mmHg 60%

    28 February, Friday

    Time Temperature Precipitation Wind Pressure Humidity
    00:00 +2°C° 0.1 mm 9 mps 738 mmHg 62%
    01:00 +2°C° 0.1 mm 9 mps 738 mmHg 64%
    02:00 +2°C° 0.1 mm 8 mps 738 mmHg 68%
    03:00 +4°C° 0.1 mm 7 mps 738 mmHg 73%
    04:00 +5°C° 0.1 mm 5 mps 737 mmHg 77%
    05:00 +3°C° 0.1 mm 6 mps 738 mmHg 74%
    06:00 +3°C° 0.1 mm 6 mps 738 mmHg 70%
    07:00 +3°C° 0.1 mm 6 mps 738 mmHg 66%
    08:00 +2°C° 0 mm 8 mps 739 mmHg 65%
    09:00 +2°C° 0 mm 10 mps 740 mmHg 63%
    10:00 +2°C° 0 mm 12 mps 741 mmHg 61%
    11:00 +3°C° 0 mm 12 mps 743 mmHg 57%
    12:00 +3°C° 0 mm 13 mps 744 mmHg 52%
    13:00 +4°C° 0 mm 13 mps 745 mmHg 48%
    14:00 +4°C° 0 mm 12 mps 746 mmHg 49%
    15:00 +4°C° 0 mm 12 mps 746 mmHg 50%
    16:00 +4°C° 0 mm 11 mps 747 mmHg 51%
    17:00 +3°C° 0 mm 9 mps 748 mmHg 55%
    18:00 +3°C° 0 mm 7 mps 749 mmHg 60%
    19:00 +2°C° 0 mm 5 mps 750 mmHg 64%
    20:00 +1°C° 0 mm 5 mps 751 mmHg 65%
    21:00 +1°C° 0 mm 4 mps 751 mmHg 66%
    22:00 0°C° 0 mm 4 mps 752 mmHg 68%
    23:00 0°C° 0 mm 4 mps 752 mmHg 69%

    29 February, Saturday

    Time Temperature Precipitation Wind Pressure Humidity
    00:00 0°C° 0 mm 4 mps 752 mmHg 70%
    01:00 0°C° 0 mm 4 mps 752 mmHg 70%
    02:00 -1°C° 0 mm 4 mps 752 mmHg 72%
    03:00 0°C° 0 mm 3 mps 752 mmHg 73%
    04:00 0°C° 0 mm 3 mps 752 mmHg 75%
    05:00 +1°C° 0 mm 2 mps 752 mmHg 76%
    06:00 +1°C° 0 mm 2 mps 752 mmHg 78%
    07:00 +2°C° 0 mm 1 mps 752 mmHg 79%
    08:00 +2°C° 0 mm 2 mps 752 mmHg 72%
    09:00 +4°C° 0 mm 2 mps 752 mmHg 65%
    10:00 +5°C° 0 mm 2 mps 752 mmHg 58%
    11:00 +5°C° 0 mm 3 mps 751 mmHg 54%
    12:00 +7°C° 0 mm 3 mps 750 mmHg 50%
    13:00 +7°C° 0 mm 4 mps 750 mmHg 46%
    14:00 +8°C° 0 mm 4 mps 749 mmHg 49%
    15:00 +8°C° 0 mm 4 mps 748 mmHg 52%
    16:00 +9°C° 0 mm 3 mps 748 mmHg 55%
    17:00 +7°C° 0 mm 4 mps 747 mmHg 56%
    18:00 +6°C° 0 mm 4 mps 747 mmHg 58%
    19:00 +6°C° 0 mm 4 mps 747 mmHg 59%
    20:00 +6°C° 0 mm 5 mps 746 mmHg 58%
    21:00 +6°C° 0 mm 5 mps 746 mmHg 57%
    22:00 +4°C° 0 mm 6 mps 746 mmHg 55%
    23:00 +4°C° 0 mm 6 mps 746 mmHg 57%

    1 March, Sunday

    Time Temperature Precipitation Wind Pressure Humidity
    00:00 +4°C° 0 mm 6 mps 745 mmHg 59%
    01:00 +3°C° 0 mm 5 mps 745 mmHg 61%
    02:00 +5°C° 0 mm 5 mps 745 mmHg 64%
    03:00 +5°C° 0 mm 4 mps 745 mmHg 67%
    04:00 +5°C° 0 mm 3 mps 746 mmHg 70%
    05:00 +5°C° 0.3 mm 4 mps 746 mmHg 77%
    06:00 +5°C° 0.3 mm 5 mps 746 mmHg 83%
    07:00 +3°C° 0.3 mm 6 mps 747 mmHg 89%
    08:00 +4°C° 0 mm 6 mps 747 mmHg 85%
    09:00 +4°C° 0 mm 6 mps 747 mmHg 80%
    10:00 +5°C° 0 mm 7 mps 748 mmHg 76%
    11:00 +7°C° 0 mm 6 mps 748 mmHg 73%
    12:00 +7°C° 0 mm 6 mps 748 mmHg 71%
    13:00 +7°C° 0 mm 5 mps 747 mmHg 68%
    14:00 +7°C° 0 mm 4 mps 747 mmHg 65%
    15:00 +7°C° 0 mm 4 mps 747 mmHg 63%
    16:00 +8°C° 0 mm 3 mps 747 mmHg 60%
    17:00 +8°C° 0 mm 3 mps 746 mmHg 64%
    18:00 +7°C° 0 mm 3 mps 746 mmHg 68%
    19:00 +6°C° 0 mm 2 mps 746 mmHg 72%
    20:00 +6°C° 0 mm 2 mps 746 mmHg 75%
    21:00 +7°C° 0 mm 1 mps 746 mmHg 77%
    22:00 +6°C° 0 mm 1 mps 746 mmHg 79%
    23:00 +6°C° 0.3 mm 1 mps 745 mmHg 82%
    Show more